Location: Calvatone
(45.1167°N, 10.4333°E)
Time: 10:38:27
(UTC+00:00)

Cosmos 1244 Rocket - Pass Details

Date: 28 January 2023
Orbit: 952 x 998 km, 83.0° (Epoch: 28 March)

Event Time Altitude Azimuth Distance (km) Brightness Sun altitude
Rises 18:14:02 0° 353° (N) 3,730 7.6 -20.2°
Reaches altitude 10° 18:16:37 10° 357° (N) 2,775 6.9 -20.6°
Maximum altitude 18:22:57 65° 79° (E) 1,085 4.4 -21.7°
Drops below altitude 10° 18:29:11 10° 161° (SSE) 2,734 6.7 -22.8°
Sets 18:31:43 0° 164° (SSE) 3,672 7.4 -23.3°
